This is the latest recevied weather packets stored in our database for station/object LB9CG. If no packets are shown the sender has not sent any weather packets the latest 10 day(s).
| Time | Temp. | Humidity | Pressure | Rain* | Wind** | Luminosity | Snow |
|---|---|---|---|---|---|---|---|
| 1778155816 | 8.89° C | 75% | 1014.9 hPa | 0 mm | - | - | - |
| 1778154016 | 7.22° C | 83% | 1014.8 hPa | 0 mm | - | - | - |
| 1778143816 | 3.89° C | 90% | 1013.9 hPa | 0 mm | - | - | - |
| 1778140238 | 3.89° C | 85% | 1013.6 hPa | 0 mm | - | - | - |
| 1778132437 | 4.44° C | 84% | 1012.7 hPa | 0 mm | - | - | - |
| 1778130617 | 2.22° C | 91% | 1012.6 hPa | 0 mm | - | - | - |
| 1778129437 | 2.22° C | 91% | 1012.4 hPa | 0 mm | - | - | - |
| 1778128217 | 2.22° C | 91% | 1012.3 hPa | 0 mm | - | - | - |
| 1778123417 | 2.22° C | 94% | 1011.7 hPa | 0 mm | - | - | - |
| 1778122217 | 2.22° C | 94% | 1011.6 hPa | 0 mm | - | - | - |
| 1778119217 | 1.67° C | 94% | 1011.4 hPa | 0 mm | - | - | - |
| 1778113217 | 2.22° C | 94% | 1011.2 hPa | 0 mm | - | - | - |
| 1778112616 | 1.67° C | 94% | 1011.3 hPa | 0 mm | - | - | - |
| 1778109617 | 1.67° C | 93% | 1010.9 hPa | 0 mm | - | - | - |
| 1778104217 | 1.67° C | 92% | 1010.5 hPa | 0 mm | - | - | - |
| 1778101217 | 1.67° C | 89% | 1010.2 hPa | 0 mm | - | - | - |
| 1778098217 | 2.78° C | 85% | 1010.2 hPa | 0 mm | - | - | - |
| 1778092216 | 5° C | 77% | 1009.6 hPa | 0 mm | - | - | - |
| 1778091616 | 5.56° C | 75% | 1009.7 hPa | 0 mm | - | - | - |
| 1778088016 | 6.67° C | 75% | 1009.6 hPa | 0 mm | - | - | - |
| 1778080816 | 6.67° C | 76% | 1009.3 hPa | 0 mm | - | - | - |
| 1778073616 | 3.89° C | 90% | 1009.5 hPa | 0 mm | - | - | - |
| 1778070616 | 2.78° C | 91% | 1009.2 hPa | 0 mm | - | - | - |
| 1778067016 | 6.67° C | 75% | 1008.6 hPa | 0 mm | - | - | - |
| 1778066418 | 5.56° C | 78% | 1008.6 hPa | 0 mm | - | - | - |
* Rain latest hour (hover to see other rain measurements)
** Current wind speed in m/s (hover to see current wind gust speed)